Погода в Сытькове

Россия / Тверская область     56°30′58″N   34°00′38″E
темп.,
°C
ветер,
м/с
пор.,
м/с
влажн.,
%
обл.,
%
осадки,
мм/ч
давл.,
гПа
погр.,
м
20 апреля, вт
вт2000:00+6в4971100 0.0 1023654
03:00+4в487398 0.0 1023726
06:00+3в4877100 0.0 1022573
09:00+4в477993 0.1 1022714
12:00+5в4776100 0.0 1020786
15:00+8в4863100 0.1 10181327
18:00+7вюв5873100 0.1 1017976
21:00+3в4888100 0.1 1016838
21 апреля, ср
ср2100:00+3св3794100 0.6 1013712
03:00+3св2697100 1.2 1010481
06:00+2ссв3797100 1.8 1006488
09:00+2с2699100 3.9 1005255
12:00+2сз2599100 0.6 1004236
15:00+3з3797100 0.8 1005511
18:00+3з3997100 0.1 1006593
21:00+2юз2395100 0.2 100870
22 апреля, чт
чт2200:00+1ююз279585 0.0 1009171
03:00+1ююз289673 0.0 1009184
06:00+1ююз279610 0.0 1010141
09:00+7ююз36775 0.0 1011408
12:00+11ююз566238 0.3 10111455
15:00+12ю575494 0.5 10111849
18:00+11ю476897 0.1 10111054
21:00+8ююв412798 0.1 1011411
23 апреля, пт
пт2300:00+7ююв3109514 0.3 1011329
03:00+5ююв279899 0.3 1010164
06:00+6ююв41293100 0.1 1009518
09:00+8ю61485100 0.2 10091310
12:00+8зюз3574100 0.2 1011803
15:00+7юз3572100 0.4 1012909
18:00+7ююз2471100 0.1 1011474
21:00+6юз1182100 0.4 101225
24 апреля, сб
сб2400:00+5зюз1284100 0.1 101254
03:00+4юз1181100 0.2 101029
06:00+3зюз248892 0.1 1010158
09:00+5зюз34689 0.1 1010755
12:00+8юз464457 0.3 10092040
15:00+9зюз4636100 0.4 10092529
18:00+7з465644 0.3 10101307
21:00+2юз22745 0.4 101016